PROFILE

 METAR AND TAF INFORMATION
ADDS - METARS form results

(0355 UTC 25 April 2019)
http://aviationweather.gov/metar/data/
 
LEIB 250330Z 20013KT 170V250 9999 SCT022 16/12 Q1012 NOSIG
LEIB 250300Z 20012KT 150V230 9999 FEW016 16/12 Q1012 NOSIG
TAF LEIB 250200Z 2503/2603 22015KT 9999 FEW020 TX18/2512Z TN13/2506Z TEMPO 2509/2514 22020G30KT TEMPO 2518/2520 VRB05KT BECMG 2520/2522 29014KT 

 AIRPORT MAP

 RUNWAY INFORMATION
Runway 06 Runway length 9186 ft Runway width 148 ft
Runway elevation 13 ft Runway displaced threshold 0 ft Runway heading 62
Runway 24 Runway length 9186 ft Runway width 148 ft
Runway elevation 16 ft Runway displaced threshold 0 ft Runway heading 242

 AIRPORT FREQUENCIES
Type APP Name PALMA APP Frequency 118.125 MHZ
Type APP Name APP Frequency 119.8 MHZ
Type ATIS Name ATIS Frequency 117.8 MHZ
Type GND Name GND Frequency 121.8 MHZ
Type TWR Name TWR Frequency 118.5 MHZ

 AIRPORT NEAR NAVIGATION AIDS
Type VOR-DME Name Ibiza Frequency 117800 KHZ
Type NDB Name Ibiza Frequency 394 KHZ